User: anonymous   Login
Location: Brno
(49.2000°N, 16.6330°E)
Time: 08:27:43
(UTC+02:00)
Language:

Meteor 1-4 Rocket - Orbit

View from above orbital plane
View from above orbital plane
View from above satellite
View from above satellite

Ground track
Ground track

The orbit data is extracted from the following two-line orbital elements,

1 04394U 70037B   15149.80432472  .00002965  00000-0  11597-3 0  9995
2 04394 081.2429 172.7297 0045214 155.7250 204.6128 15.24520749450432
Epoch (UTC): 29 May 2015 19:18:13
Eccentricity: 0.0045214
inclination: 81.2429°
perigee height: 461 km
apogee height: 523 km
right ascension of ascending node: 172.7297°
argument of perigee: 155.7250°
revolutions per day: 15.24520749
mean anomaly at epoch: 204.6128°
orbit number at epoch: 45043

The dashed part of the orbit path shows where the satellite is in the earth's shadow,  

DLR